weather.gov     
National Weather Service

Regional Weather Roundup
NWS Homepage
This page is being discontinued on March 12, 2014.
The same data is available at this site. Please update your bookmarks.
Thank you, and we apologize for the inconvenience.
Please send an email to SR-SRH.Webmaster@noaa.gov with any concerns.


Current Version
Previous Version:    01  02  03  04  05  06  07  08  09  10  11  12  13  14  15  16  17  18  19  20  21  22  23  24  25  26  27  28  29  30  
   31  32  33  34  35  36  37  38  39  40  41  42  43  44  45  46  47  48  49  50  51  52  53  54  55  56  57  58  59  60  
[Printable]
139
NZUS01 KOTX 212205
RWROTX
EASTERN WASHINGTON/NORTHERN IDAHO ROUNDUP
NATIONAL WEATHER SERVICE, SPOKANE WA
300 PM PDT THU AUG 21 2014

Note: "fair" indicated few or no clouds below 12,000 feet with no
significant weather and/or obstructions to visibility.

...NORTHEAST WASHINGTON AND NORTHERN IDAHO PANHANDLE...

CITY           SKY/WX    TMP DP  RH WIND       PRES   REMARKS
SPOKANE INTL   PTSUNNY   77  48  35 CALM      29.94F
SPOKANE DOWNTO MOSUNNY   80  49  33 CALM      29.93F
COEUR D ALENE  PTSUNNY   79  50  36 CALM      29.92F
DEER PARK      PTSUNNY   75  52  44 NE14      29.94F
SANDPOINT      MOSUNNY   75  52  43 N6        29.95F

...SOUTHEAST WASHINGTON AND SOUTHERN IDAHO PANHANDLE...

CITY           SKY/WX    TMP DP  RH WIND       PRES   REMARKS
WALLA WALLA    PTSUNNY   81  40  23 W7        29.91F
PULLMAN/MOSCOW SUNNY     77  43  29 VRB5      29.95F
LEWISTON       MOSUNNY   86  44  23 NW6       29.87F
LOWELL           N/A     88  48  25 N3        29.84F

...COLUMBIA BASIN...

CITY           SKY/WX    TMP DP  RH WIND       PRES   REMARKS
EPHRATA        MOSUNNY   81  52  36 S9        29.88F
MOSES LAKE     MOSUNNY   80  51  36 MISG      29.89F
TRI CITIES     PTSUNNY   82  40  22 S8        29.87F
HERMISTON      PTSUNNY   84  32  15 W13G22    29.87F
PENDLETON      PTSUNNY   81  32  17 NW14G20   29.91F

...EAST SLOPES CASCADES...

CITY           SKY/WX    TMP DP  RH WIND       PRES   REMARKS
THE DALLES     MOSUNNY   83  31  15 NW18G24   29.90F
YAKIMA         MOSUNNY   82  44  26 SE5       29.87F
ELLENSBURG     SUNNY     85  48  27 E7        29.89F
WENATCHEE      SUNNY     82  47  29 SE3       29.86F
OMAK           CLOUDY    80  49  33 N14G22    29.88F

...SOUTHERN BRITISH COLUMBIA...

CITY           SKY/WX    TMP DP  RH WIND       PRES   REMARKS

...WESTERN MONTANA...

CITY           SKY/WX    TMP DP  RH WIND       PRES   REMARKS
MISSOULA       CLOUDY    73  50  44 N20G29    29.98F

...NEIGHBORING CITIES...

CITY           SKY/WX    TMP DP  RH WIND       PRES   REMARKS
SEATTLE        MOSUNNY   68  50  52 VRB5      30.03F




U.S. Dept. of Commerce
NOAA National Weather Service
1325 East West Highway
Silver Spring, MD 20910
E-mail: w-nws.webmaster@noaa.gov
Page last modified: May 16, 2007
NATIONAL WEATHER SERVICE: for Safety, for Work, for Fun - FOR LIFE